Location: Unspecified
(0.0000°N, 0.0000°E)
Time: 15:32:52
(UTC+00:00)

Cosmos 80 Rocket - Pass Details

Date: 01 October 2021
Orbit: 1361 x 1510 km, 56.1° (Epoch: 15 October)

Event Time Altitude Azimuth Distance (km) Brightness Sun altitude
Rises 20:12:28 0° 315° (NW) 4,583 8.5 -35.7°
Reaches altitude 10° 20:15:39 10° 309° (NW) 3,586 7.9 -36.5°
Maximum altitude 20:23:56 44° 240° (WSW) 1,891 6.1 -38.5°
Enters shadow 20:28:34 25° 184° (S) 2,525 6.6 -39.7°
